Location: Austin
(30.3000°N, 97.7500°W)
Time: 10:13:13
(UTC-05:00)

Cosmos 1992 Rocket - Pass Details

Date: 26 May 2023
Orbit: 757 x 765 km, 74.0° (Epoch: 30 May)

Event Time Altitude Azimuth Distance (km) Brightness Sun altitude
Rises 20:55:49 0° 346° (NNW) 3,232 7.9 -6.8°
Reaches altitude 10° 20:58:12 10° 349° (NNW) 2,302 7.1 -7.2°
Maximum altitude 21:03:25 72° 73° (ENE) 801 4.0 -8.2°
Drops below altitude 10° 21:08:36 10° 158° (SSE) 2,285 6.0 -9.1°
Enters shadow 21:09:48 - 159° (SSE) 2,751 6.4 -9.4°
